This is the latest recevied weather packets stored in our database for station/object KF7ROW. If no packets are shown the sender has not sent any weather packets the latest 10 day(s).
| Time | Temp. | Humidity | Pressure | Rain* | Wind** | Luminosity | Snow |
|---|---|---|---|---|---|---|---|
| 1778101954 | 13.33° C | 83% | 1026.9 hPa | 0 mm | - | 180 W/m² | - |
| 1778101651 | 13.89° C | 83% | 1027 hPa | 0 mm | - | 183 W/m² | - |
| 1778101348 | 13.89° C | 82% | 1026.8 hPa | 0 mm | - | 197 W/m² | - |
| 1778101045 | 13.89° C | 82% | 1026.8 hPa | 0 mm | - | 219 W/m² | - |
| 1778100741 | 13.89° C | 80% | 1026.7 hPa | 0 mm | - | 245 W/m² | - |
| 1778100438 | 13.89° C | 80% | 1026.8 hPa | 0 mm | - | 260 W/m² | - |
| 1778100135 | 13.89° C | 80% | 1026.9 hPa | 0 mm | - | 264 W/m² | - |
| 1778099833 | 13.89° C | 80% | 1026.8 hPa | 0 mm | - | 265 W/m² | - |
| 1778099530 | 13.89° C | 81% | 1026.8 hPa | 0 mm | - | 268 W/m² | - |
| 1778099228 | 13.89° C | 82% | 1026.6 hPa | 0 mm | - | 294 W/m² | - |
| 1778098923 | 13.89° C | 83% | 1026.8 hPa | 0 mm | - | 253 W/m² | - |
| 1778098621 | 13.33° C | 83% | 1026.8 hPa | 0 mm | - | 222 W/m² | - |
| 1778098317 | 13.33° C | 83% | 1026.9 hPa | 0 mm | - | 221 W/m² | - |
| 1778098014 | 13.33° C | 84% | 1026.9 hPa | 0 mm | - | 218 W/m² | - |
| 1778097710 | 13.33° C | 84% | 1026.8 hPa | 0 mm | - | 198 W/m² | - |
| 1778097407 | 13.33° C | 84% | 1026.8 hPa | 0 mm | - | 192 W/m² | - |
| 1778097103 | 13.33° C | 84% | 1026.9 hPa | 0 mm | - | 193 W/m² | - |
| 1778096801 | 13.33° C | 84% | 1026.8 hPa | 0 mm | - | 194 W/m² | - |
| 1778096497 | 13.33° C | 84% | 1026.9 hPa | 0 mm | - | 197 W/m² | - |
| 1778096195 | 13.33° C | 85% | 1026.7 hPa | 0 mm | - | 202 W/m² | - |
| 1778095892 | 13.33° C | 84% | 1026.7 hPa | 0 mm | - | 197 W/m² | - |
| 1778095589 | 13.33° C | 86% | 1026.6 hPa | 0 mm | - | 205 W/m² | - |
| 1778095285 | 13.33° C | 85% | 1026.7 hPa | 0 mm | - | 209 W/m² | - |
| 1778094982 | 13.33° C | 85% | 1026.8 hPa | 0 mm | - | 206 W/m² | - |
| 1778094677 | 13.33° C | 84% | 1026.8 hPa | 0 mm | - | 199 W/m² | - |
* Rain latest hour (hover to see other rain measurements)
** Current wind speed in m/s (hover to see current wind gust speed)